EA3KZ-1 Weather Reports


time (UTC)temp
C
wind
direction
speed
KPH
gust
KPH
rain 1hr
cm
rain 24hr
cm
rain mn
cm
humidity
%
barometer
mb
20260509012557 14 286 3.2 6.4 0.00 0.00 0.00 85 1010.1
20260509011555 14 297 4.8 9.7 0.00 0.00 0.00 85 1010.1
20260509010552 14 311 6.4 9.7 0.00 0.00 0.00 85 1010.3
20260509005549 14 278 4.8 6.4 0.00 0.00 0.00 84 1010.3
20260509004547 14 316 4.8 9.7 0.00 0.00 0.00 84 1010.4
20260509003544 14 301 3.2 6.4 0.00 0.00 0.00 84 1010.6
20260509002542 14 305 3.2 6.4 0.00 0.00 0.00 83 1010.6
20260509001539 14 320 6.4 11.3 0.00 0.00 0.00 83 1010.6
20260509000536 14 293 6.4 9.7 0.00 0.00 0.00 83 1010.7
20260508235534 14 317 3.2 6.4 0.00 0.00 0.00 83 1010.7
20260508234531 14 324 3.2 6.4 0.00 0.00 0.00 83 1010.7
20260508233529 13 300 4.8 6.4 0.00 0.00 0.00 83 1010.7
20260508232526 13 286 4.8 9.7 0.00 0.00 0.00 83 1010.8
20260508231524 13 311 4.8 9.7 0.00 0.00 0.00 84 1010.8
20260508230521 13 288 6.4 9.7 0.00 0.00 0.00 84 1010.9
20260508225518 13 307 3.2 6.4 0.00 0.00 0.00 85 1010.8
20260508224516 13 280 6.4 9.7 0.00 0.00 0.00 86 1010.8
20260508223613 13 289 4.8 6.4 0.00 0.00 0.00 87 1010.9
20260508222611 13 293 6.4 9.7 0.00 0.00 0.00 87 1010.9
20260508221608 13 298 4.8 6.4 0.00 0.00 0.00 87 1011.0
20260508220606 13 313 3.2 6.4 0.00 0.00 0.00 87 1011.2
20260508215603 13 315 3.2 6.4 0.00 0.00 0.00 87 1011.0
20260508214600 13 302 4.8 6.4 0.00 0.00 0.00 87 1010.9
20260508213558 13 316 3.2 6.4 0.00 0.00 0.00 87 1011.0
20260508212555 13 307 1.6 6.4 0.00 0.00 0.00 86 1011.0
20260508211552 13 332 3.2 6.4 0.00 0.00 0.00 86 1011.0
20260508210550 14 8 1.6 3.2 0.00 0.00 0.00 86 1010.9
20260508205547 14 26 1.6 6.4 0.00 0.00 0.00 86 1011.0
20260508204545 14 350 3.2 6.4 0.00 0.00 0.00 86 1011.0
20260508203542 14 356 1.6 6.4 0.00 0.00 0.00 86 1010.8
20260508202539 14 27 3.2 9.7 0.00 0.00 0.00 86 1010.6
20260508201537 14 7 4.8 9.7 0.00 0.00 0.00 86 1010.4
20260508200534 14 316 3.2 6.4 0.00 0.00 0.00 86 1010.5
20260508195531 14 1 1.6 6.4 0.00 0.00 0.00 85 1010.2
20260508194529 15 352 3.2 6.4 0.00 0.00 0.00 84 1010.2
20260508193526 15 352 4.8 11.3 0.00 0.00 0.00 83 1010.1
20260508192524 15 347 4.8 9.7 0.00 0.00 0.00 82 1010.0
20260508191521 15 16 6.4 11.3 0.00 0.00 0.00 81 1009.9
20260508190518 15 151 3.2 11.3 0.00 0.00 0.00 80 1009.8
20260508185516 15 45 4.8 9.7 0.00 0.00 0.00 80 1009.9
20260508184613 15 17 6.4 12.9 0.00 0.00 0.00 80 1009.9
20260508183611 15 58 4.8 12.9 0.00 0.00 0.00 78 1009.7
20260508182608 16 357 3.2 9.7 0.00 0.00 0.00 77 1009.6
20260508181606 15 34 8.0 17.7 0.00 0.00 0.00 77 1009.5
20260508180603 16 134 3.2 6.4 0.00 0.00 0.00 76 1009.5
20260508175600 16 87 3.2 11.3 0.00 0.00 0.00 75 1009.5
20260508174558 16 75 4.8 12.9 0.00 0.00 0.00 75 1009.4
20260508172553 17 252 3.2 9.7 0.00 0.00 0.00 72 1009.3
20260508171550 16 166 3.2 6.4 0.00 0.00 0.00 71 1009.3
20260508170547 16 69 3.2 11.3 0.00 0.00 0.00 71 1009.2
20260508165545 17 68 4.8 17.7 0.00 0.00 0.00 69 1009.1
20260508164542 17 193 3.2 6.4 0.00 0.00 0.00 68 1009.1
20260508163540 17 59 3.2 9.7 0.00 0.00 0.00 69 1009.1
20260508162537 17 64 6.4 17.7 0.00 0.00 0.00 69 1008.9
20260508161534 17 33 9.7 14.5 0.00 0.00 0.00 69 1008.9
20260508160532 17 41 8.0 17.7 0.00 0.00 0.00 70 1009.1
20260508155530 17 58 8.0 20.9 0.00 0.00 0.00 71 1009.2
20260508154527 17 47 6.4 14.5 0.00 0.00 0.00 70 1009.3
20260508153525 17 82 3.2 14.5 0.00 0.00 0.00 70 1009.2
20260508152522 18 134 4.8 11.3 0.00 0.00 0.00 70 1009.2
20260508151519 18 117 4.8 12.9 0.00 0.00 0.00 69 1009.2
20260508150517 18 139 4.8 11.3 0.00 0.00 0.00 67 1009.0
20260508145614 18 62 6.4 14.5 0.00 0.00 0.00 63 1009.0
20260508144612 18 43 8.0 22.5 0.00 0.00 0.00 63 1009.0
20260508143609 18 38 8.0 20.9 0.00 0.00 0.00 62 1009.0
20260508142607 18 57 6.4 14.5 0.00 0.00 0.00 64 1009.0
20260508141604 18 101 6.4 17.7 0.00 0.00 0.00 64 1009.2
20260508140601 18 36 9.7 17.7 0.00 0.00 0.00 62 1009.4
20260508135559 19 37 6.4 17.7 0.00 0.00 0.00 62 1009.6
20260508134556 19 86 3.2 14.5 0.00 0.00 0.00 61 1009.5
20260508133554 19 110 3.2 6.4 0.00 0.00 0.00 58 1009.7
20260508132551 19 106 3.2 9.7 0.00 0.00 0.00 60 1009.8
20260508131548 18 89 3.2 9.7 0.00 0.00 0.00 60 1009.8
20260508130546 18 54 8.0 22.5 0.00 0.00 0.00 59 1009.7
20260508125543 19 30 3.2 14.5 0.00 0.00 0.00 55 1009.5
20260508124541 18 53 6.4 17.7 0.00 0.00 0.00 54 1009.7
20260508123538 18 115 6.4 22.5 0.00 0.00 0.00 59 1009.8
20260508122538 18 359 3.2 9.7 0.00 0.00 0.00 63 1009.6
20260508121533 19 44 6.4 17.7 0.00 0.00 0.00 59 1009.7
20260508120530 18 189 4.8 11.3 0.00 0.00 0.00 61 1009.8
20260508115527 18 143 3.2 17.7 0.00 0.00 0.00 62 1009.8
20260508114525 18 61 3.2 12.9 0.00 0.00 0.00 64 1009.6
20260508113522 18 5 3.2 12.9 0.00 0.00 0.00 60 1009.7
20260508112520 18 33 3.2 14.5 0.00 0.00 0.00 59 1009.7
20260508111517 17 58 8.0 17.7 0.00 0.00 0.00 63 1009.6
20260508110615 17 192 3.2 9.7 0.00 0.00 0.00 65 1009.6
20260508105612 17 73 3.2 11.3 0.00 0.00 0.00 65 1009.6
20260508104609 17 24 6.4 11.3 0.00 0.00 0.00 67 1009.7
20260508103607 17 354 6.4 17.7 0.00 0.00 0.00 65 1009.9
20260508102604 17 35 1.6 6.4 0.00 0.00 0.00 66 1009.8
20260508101602 18 298 1.6 9.7 0.00 0.00 0.00 64 1010.1
20260508100559 18 18 3.2 9.7 0.00 0.00 0.00 65 1010.0
20260508095556 17 29 4.8 9.7 0.00 0.00 0.00 69 1010.0
20260508094554 17 19 4.8 14.5 0.00 0.00 0.00 67 1010.0
20260508093551 17 7 1.6 9.7 0.00 0.00 0.00 68 1010.1
20260508092548 17 161 1.6 9.7 0.00 0.00 0.00 66 1010.1
20260508091546 17 54 3.2 9.7 0.00 0.00 0.00 66 1009.9
20260508090543 17 71 3.2 6.4 0.00 0.00 0.00 64 1009.9
20260508085540 17 51 4.8 12.9 0.00 0.00 0.00 60 1009.8
20260508084538 17 51 3.2 12.9 0.00 0.00 0.00 59 1009.7
20260508083535 17 37 4.8 11.3 0.00 0.00 0.00 63 1009.6
20260508082533 17 10 4.8 12.9 0.00 0.00 0.00 62 1009.3
20260508081530 17 113 0.0 3.2 0.00 0.00 0.00 60 1009.2
20260508080527 16 32 4.8 9.7 0.00 0.00 0.00 62 1009.1
20260508075525 17 110 1.6 6.4 0.00 0.00 0.00 60 1009.0
20260508074522 16 56 1.6 6.4 0.00 0.00 0.00 63 1009.0
20260508073520 17 105 1.6 6.4 0.00 0.00 0.00 61 1009.0
20260508072517 16 113 1.6 6.4 0.00 0.00 0.00 61 1008.8
20260508071514 16 68 0.0 3.2 0.00 0.00 0.00 62 1008.6
20260508070612 16 13 0.0 3.2 0.00 0.00 0.00 61 1008.5
20260508065610 15 351 1.6 6.4 0.00 0.00 0.00 64 1008.5
20260508064607 15 327 1.6 3.2 0.00 0.00 0.00 63 1008.6
20260508063604 15 16 3.2 6.4 0.00 0.00 0.00 62 1008.5
20260508062602 15 0.0 0.0 0.00 0.00 0.00 61 1008.5
20260508061559 14 0.0 0.0 0.00 0.00 0.00 64 1008.4
20260508060556 12 278 1.6 3.2 0.00 0.00 0.00 68 1008.3
20260508055554 11 230 1.6 3.2 0.00 0.00 0.00 73 1008.2
20260508054551 11 0.0 3.2 0.00 0.00 0.00 73 1008.4
20260508053549 11 0.0 0.0 0.00 0.00 0.00 71 1008.1
20260508052546 11 302 1.6 3.2 0.00 0.00 0.00 70 1008.0
20260508051543 11 296 3.2 3.2 0.00 0.00 0.00 70 1007.8
20260508050541 11 275 1.6 3.2 0.00 0.00 0.00 70 1007.7
20260508045538 11 269 1.6 3.2 0.00 0.00 0.00 72 1007.7
20260508044535 11 265 3.2 6.4 0.00 0.00 0.00 72 1007.8
20260508043533 11 240 3.2 6.4 0.00 0.00 0.00 71 1007.8
20260508042530 11 0.0 0.0 0.00 0.00 0.00 72 1007.7
20260508041528 11 282 3.2 6.4 0.00 0.00 0.00 73 1007.6
20260508040525 11 315 1.6 3.2 0.00 0.00 0.00 76 1007.6
20260508035522 11 0.0 0.0 0.00 0.00 0.00 75 1007.4
20260508034520 11 270 0.0 3.2 0.00 0.00 0.00 74 1007.5
20260508033517 11 315 0.0 3.2 0.00 0.00 0.00 74 1007.4
20260508032515 11 0.0 0.0 0.00 0.00 0.00 74 1007.6
20260508031612 11 0.0 0.0 0.00 0.00 0.00 75 1007.6
20260508030609 11 293 0.0 3.2 0.00 0.00 0.00 76 1007.7
20260508025607 11 0.0 0.0 0.00 0.00 0.00 76 1007.7
20260508024604 11 0.0 0.0 0.00 0.00 0.00 77 1007.6
20260508023602 11 0.0 0.0 0.00 0.00 0.00 77 1007.8
20260508022559 12 0.0 0.0 0.00 0.00 0.00 76 1007.9
20260508021556 12 0.0 3.2 0.00 0.00 0.00 74 1007.8
20260508020554 12 248 0.0 3.2 0.00 0.00 0.00 73 1007.9
20260508015551 12 270 0.0 3.2 0.00 0.00 0.00 75 1008.0
20260508014549 12 271 1.6 3.2 0.00 0.00 0.00 75 1008.0
20260508013546 12 270 1.6 3.2 0.00 0.00 0.00 75 1008.1